| time (UTC) | temp F | wind direction | speed MPH | gust MPH | rain 1hr in | rain 24hr in | rain mn in | humidity % | barometer mb |
| 20260507135936 | 50 | 11 | 5.0 | 7.0 | 0.00 | 0.12 | 0.12 | 63 | 1013.1 |
| 20260507135433 | 50 | 262 | 2.0 | 3.0 | 0.00 | 0.12 | 0.12 | 67 | 1012.9 |
| 20260507134930 | 50 | 230 | 0.0 | 1.0 | 0.00 | 0.12 | 0.12 | 71 | 1013.1 |
| 20260507134426 | 49 | 310 | 1.0 | 2.0 | 0.00 | 0.12 | 0.12 | 70 | 1013.2 |
| 20260507133922 | 49 | 271 | 2.0 | 3.0 | 0.00 | 0.12 | 0.12 | 72 | 1013.0 |
| 20260507133418 | 48 | 261 | 1.0 | 2.0 | 0.00 | 0.12 | 0.12 | 77 | 1012.9 |
| 20260507132912 | 48 | 243 | 2.0 | 2.0 | 0.00 | 0.12 | 0.12 | 79 | 1013.1 |
| 20260507132407 | 49 | 231 | 2.0 | 2.0 | 0.00 | 0.12 | 0.12 | 83 | 1013.0 |
| 20260507131906 | 48 | 246 | 1.0 | 2.0 | 0.00 | 0.12 | 0.12 | 83 | 1012.9 |
| 20260507131401 | 48 | 205 | 1.0 | 2.0 | 0.00 | 0.12 | 0.12 | 84 | 1013.1 |
| 20260507130858 | 48 | 284 | 1.0 | 2.0 | 0.00 | 0.12 | 0.12 | 86 | 1013.1 |
| 20260507130355 | 47 | 280 | 0.0 | 0.0 | 0.00 | 0.12 | 0.12 | 87 | 1012.7 |
| 20260507125854 | 47 | 272 | 3.0 | 4.0 | 0.00 | 0.12 | 0.12 | 86 | 1012.7 |
| 20260507125351 | 47 | 226 | 2.0 | 3.0 | 0.00 | 0.12 | 0.12 | 88 | 1012.7 |
| 20260507124849 | 47 | 182 | 2.0 | 3.0 | 0.00 | 0.12 | 0.12 | 88 | 1012.8 |
| 20260507124344 | 46 | 231 | 0.0 | 1.0 | 0.00 | 0.12 | 0.12 | 91 | 1012.8 |
| 20260507123843 | 46 | 250 | 2.0 | 2.0 | 0.00 | 0.12 | 0.12 | 91 | 1012.4 |
| 20260507123340 | 46 | 233 | 3.0 | 3.0 | 0.00 | 0.12 | 0.12 | 94 | 1012.6 |
| 20260507122836 | 46 | 227 | 0.0 | 0.0 | 0.00 | 0.12 | 0.12 | 95 | 1012.7 |
| 20260507122331 | 45 | 151 | 2.0 | 3.0 | 0.00 | 0.12 | 0.12 | 95 | 1012.8 |
| 20260507121828 | 45 | 275 | 1.0 | 1.0 | 0.00 | 0.12 | 0.12 | 96 | 1012.8 |
| 20260507121324 | 45 | 322 | 2.0 | 3.0 | 0.00 | 0.12 | 0.12 | 97 | 1012.8 |
| 20260507120820 | 45 | 326 | 1.0 | 1.0 | 0.00 | 0.12 | 0.12 | 98 | 1012.9 |
| 20260507120317 | 44 | 5 | 0.0 | 1.0 | 0.00 | 0.12 | 0.12 | 98 | 1012.9 |
| 20260507115813 | 45 | 239 | 0.0 | 0.0 | 0.00 | 0.12 | 0.12 | 99 | 1012.7 |
| 20260507115309 | 45 | 157 | 1.0 | 2.0 | 0.00 | 0.12 | 0.12 | 99 | 1012.5 |
| 20260507114805 | 44 | 228 | 0.0 | 1.0 | 0.00 | 0.12 | 0.12 | 99 | 1012.6 |
| 20260507114302 | 44 | 205 | 0.0 | 0.0 | 0.00 | 0.12 | 0.12 | 99 | 1012.5 |
| 20260507113759 | 44 | 259 | 3.0 | 4.0 | 0.00 | 0.12 | 0.12 | 99 | 1012.5 |
| 20260507113256 | 44 | 245 | 0.0 | 0.0 | 0.00 | 0.12 | 0.12 | 99 | 1012.5 |
| 20260507112754 | 44 | 222 | 0.0 | 0.0 | 0.00 | 0.12 | 0.12 | 99 | 1012.5 |
| 20260507112251 | 44 | 223 | 0.0 | 1.0 | 0.00 | 0.12 | 0.12 | 99 | 1012.4 |
| 20260507111749 | 44 | 241 | 0.0 | 0.0 | 0.00 | 0.12 | 0.12 | 99 | 1012.5 |
| 20260507111245 | 44 | 243 | 0.0 | 0.0 | 0.00 | 0.12 | 0.12 | 99 | 1012.5 |
| 20260507110741 | 44 | 260 | 0.0 | 0.0 | 0.00 | 0.12 | 0.12 | 99 | 1012.4 |
| 20260507110238 | 44 | 266 | 2.0 | 2.0 | 0.00 | 0.12 | 0.12 | 99 | 1012.4 |
| 20260507105734 | 44 | 215 | 0.0 | 0.0 | 0.00 | 0.12 | 0.12 | 99 | 1012.2 |
| 20260507105230 | 44 | 229 | 0.0 | 0.0 | 0.00 | 0.12 | 0.12 | 99 | 1012.1 |
| 20260507104728 | 44 | 224 | 0.0 | 0.0 | 0.00 | 0.12 | 0.12 | 99 | 1012.0 |
| 20260507104225 | 44 | 232 | 0.0 | 0.0 | 0.00 | 0.12 | 0.12 | 99 | 1012.0 |
| 20260507103720 | 44 | 219 | 0.0 | 0.0 | 0.00 | 0.12 | 0.12 | 99 | 1011.8 |
| 20260507103217 | 44 | 197 | 0.0 | 0.0 | 0.00 | 0.12 | 0.12 | 99 | 1011.8 |
| 20260507102713 | 44 | 306 | 1.0 | 1.0 | 0.00 | 0.12 | 0.12 | 99 | 1011.9 |
| 20260507102210 | 44 | 229 | 0.0 | 0.0 | 0.00 | 0.12 | 0.12 | 99 | 1011.7 |
| 20260507101706 | 44 | 240 | 0.0 | 0.0 | 0.00 | 0.12 | 0.12 | 99 | 1011.7 |
| 20260507101201 | 44 | 228 | 0.0 | 0.0 | 0.00 | 0.12 | 0.12 | 99 | 1011.7 |
| 20260507100659 | 44 | 244 | 1.0 | 1.0 | 0.00 | 0.12 | 0.12 | 99 | 1011.4 |
| 20260507100157 | 44 | 236 | 0.0 | 0.0 | 0.00 | 0.12 | 0.12 | 99 | 1011.6 |
| 20260507095655 | 45 | 228 | 0.0 | 0.0 | 0.00 | 0.12 | 0.12 | 99 | 1011.4 |
| 20260507095151 | 45 | 221 | 0.0 | 0.0 | 0.00 | 0.12 | 0.12 | 99 | 1011.3 |
| 20260507094648 | 45 | 227 | 0.0 | 0.0 | 0.00 | 0.12 | 0.12 | 99 | 1011.3 |
| 20260507094144 | 45 | 248 | 0.0 | 1.0 | 0.00 | 0.12 | 0.12 | 99 | 1011.3 |
| 20260507093642 | 45 | 238 | 0.0 | 1.0 | 0.00 | 0.12 | 0.12 | 99 | 1011.3 |
| 20260507093141 | 45 | 230 | 0.0 | 0.0 | 0.00 | 0.12 | 0.12 | 99 | 1011.4 |
| 20260507092637 | 45 | 253 | 0.0 | 0.0 | 0.00 | 0.12 | 0.12 | 99 | 1011.3 |
| 20260507092133 | 45 | 246 | 1.0 | 1.0 | 0.00 | 0.12 | 0.12 | 99 | 1011.5 |
| 20260507091630 | 45 | 265 | 0.0 | 1.0 | 0.00 | 0.12 | 0.12 | 99 | 1011.3 |
| 20260507091126 | 46 | 232 | 0.0 | 0.0 | 0.00 | 0.12 | 0.12 | 99 | 1011.1 |
| 20260507090622 | 46 | 274 | 1.0 | 1.0 | 0.00 | 0.12 | 0.12 | 99 | 1011.4 |
| 20260507090120 | 46 | 268 | 0.0 | 0.0 | 0.00 | 0.12 | 0.12 | 99 | 1011.3 |
| 20260507085616 | 46 | 247 | 1.0 | 2.0 | 0.00 | 0.12 | 0.12 | 99 | 1011.1 |
| 20260507085113 | 46 | 263 | 1.0 | 1.0 | 0.00 | 0.12 | 0.12 | 99 | 1011.3 |
| 20260507084610 | 46 | 239 | 0.0 | 0.0 | 0.00 | 0.12 | 0.12 | 99 | 1011.5 |
| 20260507084107 | 46 | 221 | 1.0 | 1.0 | 0.00 | 0.12 | 0.12 | 99 | 1011.2 |
| 20260507083603 | 46 | 245 | 0.0 | 0.0 | 0.00 | 0.12 | 0.12 | 99 | 1011.1 |
| 20260507083100 | 46 | 253 | 0.0 | 0.0 | 0.07 | 0.12 | 0.12 | 99 | 1011.4 |
| 20260507082556 | 46 | 217 | 0.0 | 0.0 | 0.07 | 0.12 | 0.12 | 99 | 1011.2 |
| 20260507082053 | 46 | 254 | 1.0 | 1.0 | 0.00 | 0.11 | 0.11 | 99 | 1011.2 |
| 20260507081549 | 46 | 245 | 0.0 | 0.0 | 0.00 | 0.11 | 0.11 | 99 | 1011.3 |
| 20260507081046 | 46 | 244 | 0.0 | 0.0 | 0.05 | 0.11 | 0.11 | 99 | 1011.7 |
| 20260507080541 | 46 | 256 | 1.0 | 1.0 | 0.05 | 0.11 | 0.11 | 99 | 1011.2 |
| 20260507080033 | 46 | 237 | 0.0 | 0.0 | 0.07 | 0.10 | 0.10 | 99 | 1011.6 |
| 20260507075528 | 46 | 214 | 0.0 | 0.0 | 0.07 | 0.10 | 0.10 | 99 | 1011.9 |
| 20260507075025 | 46 | 199 | 0.0 | 0.0 | 0.12 | 0.10 | 0.10 | 99 | 1011.2 |
| 20260507074521 | 46 | 223 | 0.0 | 0.0 | 0.05 | 0.09 | 0.09 | 99 | 1011.8 |
| 20260507074020 | 46 | 237 | 0.0 | 0.0 | 0.07 | 0.08 | 0.08 | 99 | 1011.4 |
| 20260507073516 | 46 | 203 | 0.0 | 1.0 | 0.07 | 0.08 | 0.08 | 99 | 1011.3 |
| 20260507073012 | 46 | 240 | 0.0 | 0.0 | 0.05 | 0.07 | 0.07 | 99 | 1011.2 |
| 20260507072510 | 46 | 224 | 0.0 | 0.0 | 0.05 | 0.07 | 0.07 | 99 | 1011.5 |
| 20260507072007 | 46 | 229 | 0.0 | 1.0 | 0.07 | 0.06 | 0.06 | 99 | 1011.4 |
| 20260507071504 | 46 | 238 | 0.0 | 0.0 | 0.07 | 0.06 | 0.06 | 99 | 1011.7 |
| 20260507071000 | 46 | 236 | 0.0 | 0.0 | 0.00 | 0.05 | 0.05 | 99 | 1012.0 |
| 20260507070458 | 47 | 235 | 0.0 | 0.0 | 0.00 | 0.05 | 0.05 | 99 | 1012.1 |
| 20260507065954 | 47 | 238 | 0.0 | 0.0 | 0.00 | 0.05 | 0.05 | 99 | 1011.5 |
| 20260507065451 | 47 | 239 | 0.0 | 0.0 | 0.12 | 0.05 | 0.05 | 99 | 1011.1 |
| 20260507064948 | 47 | 258 | 0.0 | 0.0 | 0.12 | 0.05 | 0.05 | 99 | 1011.5 |
| 20260507064447 | 47 | 228 | 0.0 | 0.0 | 0.12 | 0.04 | 0.04 | 99 | 1011.6 |
| 20260507063944 | 47 | 243 | 0.0 | 0.0 | 0.07 | 0.03 | 0.03 | 99 | 1011.6 |
| 20260507063441 | 47 | 215 | 0.0 | 0.0 | 0.00 | 0.02 | 0.02 | 99 | 1011.4 |
| 20260507062938 | 47 | 231 | 0.0 | 0.0 | 0.00 | 0.02 | 0.02 | 99 | 1011.2 |
| 20260507062435 | 47 | 231 | 0.0 | 0.0 | 0.00 | 0.02 | 0.02 | 99 | 1011.4 |
| 20260507061932 | 47 | 216 | 0.0 | 0.0 | 0.00 | 0.02 | 0.02 | 99 | 1011.5 |
| 20260507061430 | 47 | 241 | 0.0 | 0.0 | 0.00 | 0.02 | 0.02 | 99 | 1011.1 |
| 20260507060928 | 47 | 211 | 0.0 | 0.0 | 0.00 | 0.02 | 0.02 | 99 | 1011.2 |
| 20260507060425 | 48 | 235 | 0.0 | 0.0 | 0.00 | 0.02 | 0.02 | 99 | 1011.3 |
| 20260507055921 | 48 | 222 | 0.0 | 0.0 | 0.05 | 0.02 | 0.02 | 99 | 1011.0 |
| 20260507055416 | 48 | 218 | 0.0 | 0.0 | 0.05 | 0.02 | 0.02 | 99 | 1010.3 |
| 20260507054908 | 48 | 222 | 0.0 | 0.0 | 0.07 | 0.01 | 0.01 | 99 | 1010.7 |
| 20260507054404 | 48 | 229 | 0.0 | 0.0 | 0.07 | 0.01 | 0.01 | 99 | 1010.9 |
| 20260507053901 | 47 | 244 | 0.0 | 0.0 | 0.00 | 0.00 | 0.00 | 99 | 1010.6 |
| 20260507053359 | 48 | 234 | 0.0 | 0.0 | 0.00 | 0.00 | 0.00 | 99 | 1010.7 |
| 20260507052858 | 48 | 242 | 0.0 | 0.0 | 0.00 | 0.00 | 0.00 | 99 | 1010.9 |
| 20260507052354 | 48 | 187 | 0.0 | 0.0 | 0.00 | 0.00 | 0.00 | 99 | 1010.6 |
| 20260507051852 | 48 | 229 | 0.0 | 0.0 | 0.00 | 0.00 | 0.00 | 99 | 1010.9 |
| 20260507051349 | 48 | 186 | 0.0 | 0.0 | 0.00 | 0.00 | 0.00 | 99 | 1011.1 |
| 20260507050846 | 48 | 231 | 0.0 | 0.0 | 0.00 | 0.00 | 0.00 | 99 | 1011.3 |
| 20260507050342 | 48 | 242 | 0.0 | 0.0 | 0.00 | 0.00 | 0.00 | 99 | 1011.5 |
| 20260507045839 | 48 | 233 | 1.0 | 2.0 | 0.00 | 0.00 | 0.00 | 99 | 1011.3 |
| 20260507045336 | 48 | 232 | 0.0 | 0.0 | 0.00 | 0.00 | 0.00 | 99 | 1011.2 |
| 20260507044833 | 48 | 234 | 0.0 | 0.0 | 0.00 | 0.00 | 0.00 | 99 | 1011.5 |
| 20260507044329 | 48 | 219 | 0.0 | 0.0 | 0.00 | 0.00 | 0.00 | 99 | 1011.3 |
| 20260507043825 | 48 | 152 | 0.0 | 0.0 | 0.00 | 0.00 | 0.00 | 99 | 1011.1 |
| 20260507043322 | 48 | 196 | 0.0 | 0.0 | 0.00 | 0.00 | 0.00 | 99 | 1011.1 |
| 20260507042818 | 48 | 208 | 0.0 | 0.0 | 0.00 | 0.00 | 0.00 | 99 | 1011.3 |
| 20260507042314 | 48 | 252 | 0.0 | 0.0 | 0.00 | 0.00 | 0.00 | 99 | 1011.5 |
| 20260507041811 | 48 | 233 | 0.0 | 0.0 | 0.00 | 0.00 | 0.00 | 99 | 1011.4 |
| 20260507041308 | 48 | 242 | 0.0 | 0.0 | 0.00 | 0.00 | 0.00 | 99 | 1011.2 |
| 20260507040805 | 48 | 239 | 0.0 | 0.0 | 0.00 | 0.00 | 0.00 | 99 | 1011.3 |
| 20260507040301 | 48 | 192 | 0.0 | 0.0 | 0.00 | 0.00 | 0.00 | 99 | 1011.4 |
| 20260507035757 | 49 | 238 | 0.0 | 0.0 | 0.00 | 0.32 | 0.32 | 99 | 1011.2 |
| 20260507035252 | 48 | 112 | 1.0 | 1.0 | 0.00 | 0.32 | 0.32 | 99 | 1011.2 |
| 20260507034750 | 48 | 168 | 0.0 | 1.0 | 0.00 | 0.32 | 0.32 | 99 | 1011.0 |
| 20260507034247 | 49 | 353 | 0.0 | 0.0 | 0.00 | 0.32 | 0.32 | 99 | 1011.1 |
| 20260507033745 | 49 | 250 | 0.0 | 0.0 | 0.00 | 0.32 | 0.32 | 99 | 1011.0 |
| 20260507033242 | 49 | 233 | 0.0 | 0.0 | 0.00 | 0.32 | 0.32 | 99 | 1011.0 |
| 20260507032739 | 50 | 230 | 0.0 | 0.0 | 0.00 | 0.32 | 0.32 | 99 | 1010.6 |
| 20260507032235 | 50 | 199 | 0.0 | 0.0 | 0.00 | 0.32 | 0.32 | 99 | 1011.0 |
| 20260507031732 | 50 | 234 | 0.0 | 0.0 | 0.00 | 0.32 | 0.32 | 99 | 1011.0 |
| 20260507031229 | 50 | 240 | 0.0 | 0.0 | 0.00 | 0.32 | 0.32 | 99 | 1011.2 |
| 20260507030726 | 50 | 182 | 0.0 | 0.0 | 0.00 | 0.32 | 0.32 | 99 | 1011.1 |
| 20260507030223 | 50 | 287 | 0.0 | 1.0 | 0.00 | 0.32 | 0.32 | 99 | 1011.6 |
| 20260507025720 | 50 | 197 | 0.0 | 0.0 | 0.00 | 0.32 | 0.32 | 99 | 1011.5 |
| 20260507025217 | 51 | 306 | 3.0 | 6.0 | 0.00 | 0.32 | 0.32 | 99 | 1011.2 |
| 20260507024716 | 51 | 298 | 0.0 | 0.0 | 0.00 | 0.32 | 0.32 | 99 | 1011.3 |
| 20260507024212 | 52 | 256 | 0.0 | 0.0 | 0.00 | 0.32 | 0.32 | 99 | 1011.4 |
| 20260507023708 | 52 | 271 | 1.0 | 2.0 | 0.00 | 0.32 | 0.32 | 99 | 1011.3 |
| 20260507023205 | 52 | 211 | 0.0 | 0.0 | 0.00 | 0.32 | 0.32 | 99 | 1011.4 |
| 20260507022702 | 53 | 339 | 3.0 | 3.0 | 0.00 | 0.32 | 0.32 | 99 | 1011.2 |
| 20260507022158 | 54 | 260 | 1.0 | 2.0 | 0.00 | 0.32 | 0.32 | 99 | 1011.3 |
| 20260507021654 | 55 | 230 | 0.0 | 0.0 | 0.00 | 0.32 | 0.32 | 99 | 1011.2 |
| 20260507021149 | 55 | 256 | 2.0 | 2.0 | 0.00 | 0.32 | 0.32 | 99 | 1010.9 |
| 20260507020649 | 56 | 241 | 1.0 | 1.0 | 0.00 | 0.32 | 0.32 | 99 | 1010.9 |
| 20260507020144 | 56 | 247 | 0.0 | 0.0 | 0.00 | 0.32 | 0.32 | 99 | 1010.5 |
| 20260507015643 | 56 | 276 | 3.0 | 4.0 | 0.00 | 0.32 | 0.32 | 99 | 1010.5 |
| 20260507015140 | 56 | 248 | 4.0 | 4.0 | 0.00 | 0.32 | 0.32 | 99 | 1010.5 |
| 20260507014636 | 57 | 243 | 0.0 | 0.0 | 0.00 | 0.32 | 0.32 | 99 | 1010.7 |
| 20260507014132 | 57 | 244 | 0.0 | 0.0 | 0.00 | 0.32 | 0.32 | 99 | 1010.9 |
| 20260507013629 | 57 | 250 | 1.0 | 1.0 | 0.00 | 0.32 | 0.32 | 99 | 1011.0 |
| 20260507013126 | 57 | 250 | 1.0 | 1.0 | 0.00 | 0.32 | 0.32 | 99 | 1010.5 |
| 20260507012624 | 57 | 241 | 0.0 | 0.0 | 0.00 | 0.32 | 0.32 | 99 | 1010.7 |
| 20260507012119 | 57 | 251 | 1.0 | 2.0 | 0.00 | 0.32 | 0.32 | 99 | 1010.4 |
| 20260507011617 | 58 | 251 | 1.0 | 1.0 | 0.05 | 0.32 | 0.32 | 99 | 1010.7 |
| 20260507011113 | 58 | 260 | 0.0 | 0.0 | 0.05 | 0.32 | 0.32 | 99 | 1010.1 |
| 20260507010608 | 58 | 256 | 1.0 | 1.0 | 0.00 | 0.31 | 0.31 | 99 | 1010.4 |
| 20260507010104 | 58 | 250 | 0.0 | 0.0 | 0.00 | 0.31 | 0.31 | 99 | 1009.8 |
| 20260507005602 | 58 | 241 | 0.0 | 0.0 | 0.00 | 0.31 | 0.31 | 99 | 1009.9 |
| 20260507005058 | 58 | 256 | 0.0 | 0.0 | 0.00 | 0.31 | 0.31 | 99 | 1009.8 |
| 20260507004555 | 58 | 238 | 0.0 | 0.0 | 0.00 | 0.31 | 0.31 | 99 | 1009.6 |
| 20260507004052 | 58 | 254 | 0.0 | 0.0 | 0.00 | 0.31 | 0.31 | 99 | 1009.7 |
| 20260507003548 | 58 | 247 | 0.0 | 0.0 | 0.00 | 0.31 | 0.31 | 99 | 1009.8 |
| 20260507003043 | 58 | 355 | 0.0 | 0.0 | 0.00 | 0.31 | 0.31 | 99 | 1009.8 |
| 20260507002540 | 58 | 244 | 0.0 | 0.0 | 0.00 | 0.31 | 0.31 | 99 | 1009.6 |
| 20260507002036 | 58 | 249 | 0.0 | 0.0 | 0.00 | 0.31 | 0.31 | 99 | 1009.8 |
| 20260507001533 | 58 | 251 | 0.0 | 0.0 | 0.00 | 0.31 | 0.31 | 99 | 1009.4 |
| 20260507001031 | 58 | 240 | 0.0 | 0.0 | 0.00 | 0.31 | 0.31 | 99 | 1009.7 |
| 20260507000527 | 58 | 81 | 0.0 | 0.0 | 0.00 | 0.31 | 0.31 | 99 | 1009.8 |
| 20260507000023 | 58 | 255 | 1.0 | 2.0 | 0.00 | 0.31 | 0.31 | 99 | 1009.8 |
| 20260506235520 | 58 | 246 | 0.0 | 0.0 | 0.00 | 0.31 | 0.31 | 99 | 1009.8 |
| 20260506235015 | 58 | 254 | 0.0 | 0.0 | 0.00 | 0.31 | 0.31 | 99 | 1009.6 |
| 20260506234513 | 58 | 249 | 0.0 | 0.0 | 0.00 | 0.31 | 0.31 | 99 | 1009.6 |
| 20260506234010 | 58 | 247 | 0.0 | 0.0 | 0.00 | 0.31 | 0.31 | 99 | 1009.3 |
| 20260506233507 | 58 | 264 | 0.0 | 0.0 | 0.00 | 0.31 | 0.31 | 99 | 1009.5 |
| 20260506233004 | 58 | 215 | 0.0 | 0.0 | 0.00 | 0.31 | 0.31 | 99 | 1009.4 |
| 20260506232500 | 58 | 238 | 0.0 | 0.0 | 0.00 | 0.31 | 0.31 | 99 | 1009.4 |
| 20260506231955 | 58 | 206 | 0.0 | 1.0 | 0.00 | 0.31 | 0.31 | 99 | 1009.3 |
| 20260506231453 | 58 | 247 | 0.0 | 0.0 | 0.00 | 0.31 | 0.31 | 99 | 1009.5 |
| 20260506230950 | 58 | 251 | 0.0 | 0.0 | 0.00 | 0.31 | 0.31 | 99 | 1009.2 |
| 20260506230446 | 58 | 238 | 2.0 | 3.0 | 0.00 | 0.31 | 0.31 | 99 | 1009.5 |
| 20260506225943 | 58 | 251 | 0.0 | 0.0 | 0.00 | 0.31 | 0.31 | 99 | 1009.4 |
| 20260506225441 | 58 | 246 | 0.0 | 1.0 | 0.00 | 0.31 | 0.31 | 99 | 1009.2 |
| 20260506224937 | 58 | 251 | 0.0 | 1.0 | 0.00 | 0.31 | 0.31 | 99 | 1009.3 |
| 20260506224434 | 58 | 257 | 0.0 | 0.0 | 0.00 | 0.31 | 0.31 | 99 | 1009.3 |
| 20260506223931 | 58 | 220 | 0.0 | 0.0 | 0.00 | 0.31 | 0.31 | 99 | 1009.0 |
| 20260506223426 | 58 | 242 | 0.0 | 0.0 | 0.00 | 0.31 | 0.31 | 99 | 1009.1 |
| 20260506222924 | 58 | 252 | 0.0 | 0.0 | 0.00 | 0.31 | 0.31 | 99 | 1009.1 |
| 20260506222420 | 58 | 258 | 0.0 | 0.0 | 0.00 | 0.31 | 0.31 | 99 | 1009.0 |
| 20260506221917 | 58 | 266 | 0.0 | 0.0 | 0.00 | 0.31 | 0.31 | 99 | 1008.9 |
| 20260506221414 | 58 | 214 | 0.0 | 0.0 | 0.00 | 0.31 | 0.31 | 99 | 1009.0 |
| 20260506220912 | 58 | 223 | 0.0 | 1.0 | 0.00 | 0.31 | 0.31 | 99 | 1008.9 |
| 20260506220407 | 58 | 253 | 0.0 | 1.0 | 0.00 | 0.31 | 0.31 | 99 | 1009.1 |
| 20260506215904 | 58 | 256 | 0.0 | 0.0 | 0.00 | 0.31 | 0.31 | 99 | 1008.7 |
| 20260506215400 | 58 | 261 | 0.0 | 0.0 | 0.00 | 0.31 | 0.31 | 99 | 1008.9 |
| 20260506214856 | 58 | 244 | 0.0 | 0.0 | 0.00 | 0.31 | 0.31 | 99 | 1008.8 |
| 20260506214353 | 58 | 217 | 0.0 | 0.0 | 0.00 | 0.31 | 0.31 | 99 | 1008.5 |
| 20260506213851 | 58 | 245 | 0.0 | 0.0 | 0.00 | 0.31 | 0.31 | 99 | 1008.7 |
| 20260506213348 | 58 | 248 | 0.0 | 0.0 | 0.00 | 0.31 | 0.31 | 99 | 1008.7 |
| 20260506212846 | 58 | 257 | 1.0 | 1.0 | 0.00 | 0.31 | 0.31 | 99 | 1008.6 |
| 20260506212341 | 58 | 258 | 1.0 | 1.0 | 0.00 | 0.31 | 0.31 | 99 | 1008.9 |
| 20260506211836 | 58 | 233 | 0.0 | 0.0 | 0.00 | 0.31 | 0.31 | 99 | 1008.7 |
| 20260506211332 | 58 | 164 | 0.0 | 0.0 | 0.00 | 0.31 | 0.31 | 99 | 1008.7 |
| 20260506210830 | 58 | 295 | 0.0 | 0.0 | 0.00 | 0.31 | 0.31 | 99 | 1008.8 |
| 20260506210327 | 58 | 80 | 0.0 | 0.0 | 0.00 | 0.31 | 0.31 | 99 | 1008.8 |
| 20260506205824 | 58 | 259 | 0.0 | 0.0 | 0.00 | 0.31 | 0.31 | 99 | 1008.7 |
| 20260506205320 | 58 | 30 | 3.0 | 4.0 | 0.00 | 0.31 | 0.31 | 99 | 1008.7 |
| 20260506204817 | 58 | 253 | 0.0 | 0.0 | 0.07 | 0.31 | 0.31 | 99 | 1008.7 |
| 20260506204314 | 58 | 259 | 0.0 | 0.0 | 0.07 | 0.31 | 0.31 | 99 | 1008.6 |
| 20260506203812 | 58 | 230 | 0.0 | 0.0 | 0.05 | 0.30 | 0.30 | 99 | 1008.7 |
| 20260506203309 | 58 | 30 | 0.0 | 2.0 | 0.05 | 0.30 | 0.30 | 99 | 1008.8 |
| 20260506202806 | 58 | 244 | 0.0 | 0.0 | 0.00 | 0.29 | 0.29 | 99 | 1008.7 |
| 20260506202306 | 58 | 251 | 0.0 | 0.0 | 0.00 | 0.29 | 0.29 | 99 | 1009.0 |
| 20260506201759 | 58 | 239 | 4.0 | 4.0 | 0.07 | 0.29 | 0.29 | 99 | 1008.9 |
| 20260506201256 | 58 | 195 | 0.0 | 0.0 | 0.07 | 0.29 | 0.29 | 99 | 1008.9 |
| 20260506200754 | 58 | 228 | 0.0 | 0.0 | 0.05 | 0.28 | 0.28 | 99 | 1009.0 |
| 20260506200249 | 58 | 224 | 0.0 | 0.0 | 0.12 | 0.28 | 0.28 | 99 | 1009.0 |
| 20260506195746 | 58 | 271 | 0.0 | 1.0 | 0.12 | 0.27 | 0.27 | 99 | 1009.2 |
| 20260506195242 | 58 | 290 | 1.0 | 2.0 | 0.12 | 0.26 | 0.26 | 99 | 1009.2 |
| 20260506194740 | 58 | 336 | 2.0 | 2.0 | 0.07 | 0.25 | 0.25 | 99 | 1009.4 |
| 20260506194236 | 58 | 258 | 0.0 | 0.0 | 0.14 | 0.25 | 0.25 | 99 | 1009.3 |
| 20260506193734 | 58 | 228 | 0.0 | 0.0 | 0.12 | 0.24 | 0.24 | 99 | 1009.3 |
| 20260506193231 | 58 | 208 | 0.0 | 0.0 | 0.17 | 0.23 | 0.23 | 99 | 1009.5 |
| 20260506192727 | 58 | 315 | 1.0 | 3.0 | 0.19 | 0.22 | 0.22 | 99 | 1009.5 |
| 20260506192224 | 58 | 327 | 0.0 | 0.0 | 0.19 | 0.20 | 0.20 | 99 | 1009.5 |
| 20260506191721 | 58 | 160 | 1.0 | 1.0 | 0.24 | 0.19 | 0.19 | 99 | 1009.6 |
| 20260506191217 | 58 | 268 | 0.0 | 1.0 | 0.24 | 0.17 | 0.17 | 99 | 1009.8 |
| 20260506190714 | 58 | 201 | 0.0 | 0.0 | 0.12 | 0.15 | 0.15 | 99 | 1009.4 |
| 20260506190211 | 58 | 245 | 0.0 | 0.0 | 0.07 | 0.13 | 0.13 | 99 | 1009.5 |
| 20260506185708 | 58 | 325 | 1.0 | 1.0 | 0.07 | 0.13 | 0.13 | 99 | 1009.5 |
| 20260506185204 | 58 | 211 | 0.0 | 0.0 | 0.05 | 0.12 | 0.12 | 99 | 1009.5 |
| 20260506184702 | 58 | 194 | 1.0 | 1.0 | 0.05 | 0.12 | 0.12 | 99 | 1009.6 |
| 20260506184159 | 58 | 237 | 0.0 | 0.0 | 0.05 | 0.12 | 0.12 | 99 | 1009.7 |
| 20260506183655 | 59 | 228 | 0.0 | 0.0 | 0.07 | 0.11 | 0.11 | 99 | 1009.5 |
| 20260506183145 | 59 | 248 | 0.0 | 0.0 | 0.05 | 0.10 | 0.10 | 99 | 1009.7 |
| 20260506182643 | 59 | 231 | 0.0 | 0.0 | 0.05 | 0.10 | 0.10 | 99 | 1009.8 |
| 20260506182140 | 59 | 194 | 0.0 | 0.0 | 0.05 | 0.10 | 0.10 | 99 | 1009.8 |
| 20260506181638 | 59 | 251 | 0.0 | 0.0 | 0.00 | 0.09 | 0.09 | 99 | 1009.9 |
| 20260506181135 | 59 | 221 | 0.0 | 0.0 | 0.00 | 0.09 | 0.09 | 99 | 1009.7 |
| 20260506180632 | 59 | 85 | 0.0 | 0.0 | 0.00 | 0.09 | 0.09 | 99 | 1009.7 |
| 20260506180128 | 59 | 331 | 2.0 | 2.0 | 0.00 | 0.09 | 0.09 | 98 | 1010.1 |
| 20260506175624 | 59 | 79 | 0.0 | 0.0 | 0.00 | 0.09 | 0.09 | 99 | 1009.8 |
| 20260506175120 | 58 | 335 | 1.0 | 1.0 | 0.07 | 0.09 | 0.09 | 99 | 1010.0 |
| 20260506174619 | 58 | 190 | 1.0 | 2.0 | 0.07 | 0.09 | 0.09 | 98 | 1010.2 |
| 20260506174116 | 59 | 36 | 0.0 | 0.0 | 0.00 | 0.08 | 0.08 | 98 | 1010.2 |
| 20260506173614 | 59 | 248 | 0.0 | 0.0 | 0.00 | 0.08 | 0.08 | 98 | 1009.9 |
| 20260506173110 | 59 | 146 | 0.0 | 0.0 | 0.05 | 0.08 | 0.08 | 98 | 1009.7 |
| 20260506172608 | 59 | 212 | 0.0 | 1.0 | 0.05 | 0.08 | 0.08 | 98 | 1009.7 |
| 20260506172103 | 59 | 174 | 0.0 | 0.0 | 0.00 | 0.07 | 0.07 | 98 | 1009.9 |
| 20260506171601 | 60 | 234 | 0.0 | 1.0 | 0.07 | 0.07 | 0.07 | 97 | 1009.9 |
| 20260506171058 | 60 | 161 | 1.0 | 1.0 | 0.07 | 0.07 | 0.07 | 97 | 1009.7 |
| 20260506170556 | 60 | 269 | 0.0 | 0.0 | 0.05 | 0.06 | 0.06 | 97 | 1010.0 |
| 20260506170053 | 60 | 219 | 0.0 | 0.0 | 0.12 | 0.06 | 0.06 | 97 | 1010.1 |
| 20260506165552 | 60 | 197 | 0.0 | 0.0 | 0.07 | 0.05 | 0.05 | 96 | 1010.2 |
| 20260506165047 | 60 | 202 | 0.0 | 0.0 | 0.05 | 0.04 | 0.04 | 95 | 1010.3 |
| 20260506164545 | 60 | 245 | 0.0 | 0.0 | 0.12 | 0.04 | 0.04 | 94 | 1010.7 |
| 20260506164042 | 60 | 239 | 0.0 | 0.0 | 0.12 | 0.03 | 0.03 | 93 | 1010.9 |
| 20260506163537 | 60 | 291 | 0.0 | 0.0 | 0.12 | 0.02 | 0.02 | 92 | 1011.4 |
| 20260506163033 | 61 | 218 | 0.0 | 0.0 | 0.07 | 0.01 | 0.01 | 90 | 1011.2 |
| 20260506162529 | 61 | 240 | 0.0 | 0.0 | 0.00 | 0.00 | 0.00 | 90 | 1011.4 |
| 20260506162021 | 62 | 107 | 0.0 | 1.0 | 0.00 | 0.00 | 0.00 | 88 | 1011.4 |
| 20260506161519 | 62 | 278 | 0.0 | 0.0 | 0.00 | 0.00 | 0.00 | 87 | 1011.1 |
| 20260506161016 | 63 | 72 | 4.0 | 6.0 | 0.00 | 0.00 | 0.00 | 84 | 1011.2 |
| 20260506160513 | 63 | 262 | 0.0 | 0.0 | 0.00 | 0.00 | 0.00 | 84 | 1010.9 |
| 20260506160010 | 63 | 291 | 0.0 | 0.0 | 0.00 | 0.00 | 0.00 | 85 | 1011.2 |
| 20260506155508 | 63 | 151 | 0.0 | 0.0 | 0.00 | 0.00 | 0.00 | 86 | 1011.2 |
| 20260506153640 | 63 | 255 | 1.0 | 2.0 | 0.00 | 0.00 | 0.00 | 84 | 1011.5 |
| 20260506153137 | 64 | 252 | 1.0 | 1.0 | 0.00 | 0.00 | 0.00 | 82 | 1011.5 |
| 20260506152634 | 64 | 232 | 0.0 | 0.0 | 0.00 | 0.00 | 0.00 | 82 | 1011.7 |
| 20260506152132 | 64 | 263 | 1.0 | 2.0 | 0.00 | 0.00 | 0.00 | 81 | 1011.6 |
| 20260506151630 | 64 | 161 | 0.0 | 0.0 | 0.00 | 0.00 | 0.00 | 81 | 1011.6 |
| 20260506151127 | 64 | 238 | 0.0 | 0.0 | 0.00 | 0.00 | 0.00 | 80 | 1011.6 |
| 20260506150624 | 64 | 277 | 2.0 | 2.0 | 0.00 | 0.00 | 0.00 | 80 | 1011.6 |
| 20260506150121 | 64 | 113 | 1.0 | 3.0 | 0.00 | 0.00 | 0.00 | 80 | 1011.6 |
| 20260506145618 | 64 | 251 | 0.0 | 0.0 | 0.00 | 0.00 | 0.00 | 81 | 1011.6 |
| 20260506145114 | 64 | 222 | 0.0 | 0.0 | 0.00 | 0.00 | 0.00 | 81 | 1011.5 |
| 20260506144612 | 64 | 249 | 1.0 | 1.0 | 0.00 | 0.00 | 0.00 | 80 | 1011.8 |
| 20260506144108 | 64 | 334 | 0.0 | 2.0 | 0.00 | 0.00 | 0.00 | 81 | 1011.5 |
| 20260506143606 | 63 | 261 | 2.0 | 3.0 | 0.00 | 0.00 | 0.00 | 81 | 1011.7 |
| 20260506143104 | 63 | 274 | 1.0 | 1.0 | 0.00 | 0.00 | 0.00 | 82 | 1011.7 |
| 20260506142602 | 63 | 233 | 0.0 | 0.0 | 0.00 | 0.00 | 0.00 | 83 | 1011.6 |
| 20260506142100 | 63 | 246 | 1.0 | 1.0 | 0.00 | 0.00 | 0.00 | 82 | 1011.7 |
| 20260506141557 | 63 | 10 | 3.0 | 4.0 | 0.00 | 0.00 | 0.00 | 82 | 1012.1 |
| 20260506141055 | 63 | 1 | 1.0 | 2.0 | 0.00 | 0.00 | 0.00 | 83 | 1011.8 |
| 20260506140552 | 63 | 219 | 0.0 | 0.0 | 0.00 | 0.00 | 0.00 | 84 | 1012.1 |